Regional Weather Roundup
Issued by NWS

Home | Current Version | Previous Version | Graphics & Text | Print | Product List | Glossary Off
Versions: 1 2 3 4 5 6 7 8 9 10 11 12 13 14 15 16 17 18 19 20 21 22 23 24 25 26 27 28 29 30 31 32 33 34 35 36 37 38 39 40 41 42 43 44 45 46 47 48 49 50

000
ASUS43 KMKX 290811
RWRWI

WISCONSIN REGIONAL WEATHER ROUNDUP
NATIONAL WEATHER SERVICE MILWAUKEE/SULLIVAN WI
300 AM CDT SUN MAY 29 2016

NOTE: "FAIR" INDICATES FEW OR NO CLOUDS BELOW 12,000 FEET WITH NO
SIGNIFICANT WEATHER AND/OR OBSTRUCTIONS TO VISIBILITY.

WIZ001-002-006>008-014>016-023>028-290900-
NORTHWEST WISCONSIN

CITY           SKY/WX    TMP DP  RH WIND       PRES   REMARKS
SUPERIOR ARPT  FOG       52  52 100 CALM      29.80F VSB 1/2
ASHLAND        FOG       52  51  97 SE3       29.79F VSB 1
HAYWARD        CLOUDY    59  58  96 CALM      29.81R FOG
SIREN          CLOUDY    60  59  97 CALM      29.81S
CUMBERLAND     CLOUDY    59  59 100 CALM      29.82R
RICE LAKE      CLOUDY    61  59  94 SW3       29.83S FOG
CHETEK         CLOUDY    61  61 100 SW6       29.82S
LADYSMITH      CLOUDY    62  61  97 SW8       29.83S FOG
EAU CLAIRE     CLOUDY    60  59  96 S3        29.82S
MENOMONIE      CLOUDY    62  62  99 CALM      29.83S
NEW RICHMOND   CLOUDY    60  60 100 W6        29.83S
OSCEOLA        DRIZZLE   61  61 100 CALM      29.85S
$$

WIZ003>005-009-010-017-018-290900-
NORTH CENTRAL WISCONSIN

CITY           SKY/WX    TMP DP  RH WIND       PRES   REMARKS
MANITOWISH WTR NOT AVBL
ARBOR VITAE    DRIZZLE   62  61  96 SW6       29.81S
WOODRUFF       DRIZZLE   62  61  96 SW6       29.81S
RHINELANDER    LGT RAIN  63  61  93 SW9       29.82F
EAGLE RIVER      N/A     62  62  98 S5        29.81F
LAND O LAKES   CLOUDY    62  62  99 S3        29.82F
PHILLIPS       CLOUDY    60  60 100 S6        29.81S
TOMAHAWK       CLOUDY    61  59  94 CALM      29.83S
MEDFORD        PTCLDY    59  59 100 S6        29.83F
MERRILL        PTCLDY    63  63 100 SW7       29.84R
$$

WIZ029-030-035-036-043>047-290900-
CENTRAL WISCONSIN

CITY           SKY/WX    TMP DP  RH WIND       PRES   REMARKS
WAUSAU         CLOUDY    65  61  87 SW9       29.82S
MOSINEE        MOCLDY    61  61 100 S9        29.85S
MARSHFIELD     MOCLDY    63  60  90 S7        29.83F
STEVENS POINT  MOCLDY    61  60  97 S8        29.85S
WAUPACA        CLOUDY    65  64  98 S5        29.85S
WAUTOMA        CLOUDY    64  63  96 S5        29.86F
WISC RAPIDS    CLOUDY    65  61  87 SW7       29.85F
CAMP DOUGLAS   CLOUDY    65  65 100 SW9       29.84S
$$

WIZ011>013-019>022-031-037>040-048>050-290900-
NORTHEAST WISCONSIN

CITY           SKY/WX    TMP DP  RH WIND       PRES   REMARKS
ANTIGO         CLOUDY    62  61  97 SW10      29.84F
SHAWANO        CLOUDY    65  62  90 SW5       29.84F
OCONTO         CLOUDY   N/A N/A N/A CALM      29.83F
STURGEON BAY   NOT AVBL
GREEN BAY      PTCLDY    66  62  87 S7        29.85S
MANITOWOC      PTCLDY    62  61  96 S6        29.88R
APPLETON       CLOUDY    63  63 100 SW10      29.84S
CLINTONVILLE   CLOUDY    63  61  94 SW8       29.84F
OSHKOSH        CLOUDY    65  61  87 SW8       29.86S
$$

WIZ032>034-041-042-053>061-290900-
SOUTHWEST WISCONSIN

CITY           SKY/WX    TMP DP  RH WIND       PRES   REMARKS
LA CROSSE      MOCLDY    63  60  90 CALM      29.83S
SPARTA         LGT RAIN  63  62  96 S6        29.85S
VIROQUA        MOCLDY    62  60  94 S10       29.86S
BOSCOBEL       PTCLDY    63  60  90 S3        29.86F
PRAIRIE DU CHI CLOUDY    65  58  79 S6        29.85S
PLATTEVILLE    CLEAR     63  61  92 S13       29.89F
$$

WIZ056-057-062-063-064-067-068-290900-
SOUTH CENTRAL WISCONSIN

CITY           SKY/WX    TMP DP  RH WIND       PRES   REMARKS
REEDSBURG      CLEAR     63  61  94 S9        29.86S
BARABOO/DELLS  CLEAR     63  59  86 SW9       29.87S
LONE ROCK      CLEAR     64  60  87 CALM      29.87F
MINERAL POINT  CLEAR     63  61  94 S8        29.89F
MADISON        CLOUDY    66  60  81 S10       29.88F
MIDDLETON      CLOUDY    65  61  86 SW8       29.89S
WATERTOWN      CLOUDY    65  64  99 S8        29.89S
MONROE         CLEAR     63  59  88 S10       29.91F
JANESVILLE     PTCLDY    64  61  88 S7        29.91S
$$

WIZ051-052-058>065-066-070>072-290900-
SOUTHEAST WISCONSIN

CITY           SKY/WX    TMP DP  RH WIND       PRES   REMARKS
MILWAUKEE      CLOUDY    66  63  90 SW10      29.91S
WAUKESHA       CLOUDY    63  61  94 S5        29.92S
MILWAUKEE/TIMM PTCLDY    63  61  94 S6        29.91R
RACINE         MOCLDY    65  61  87 SW7       29.94R
BURLINGTON     MOCLDY    63  62  98 SW5       29.92S
KENOSHA        PTCLDY    64  61  90 S7        29.93R
FOND DU LAC    CLOUDY    66  63  90 S7        29.87S
SHEBOYGAN      CLEAR     62  61  96 S6        29.88S
WEST BEND      MOCLDY    63  61  94 S5        29.89S
JUNEAU         CLOUDY    64  63  96 S8        29.90S
$$

LSZ147-162-290900-
LAKE SUPERIOR

STATION/POSITION TIME  TEMP    WIND        PRES    WAVE
                       AIR SEA DIR/SP/G            HT/PER
                 (UTC) (F)     (DEG/KT/KT) (MB)    (FT/S)
W MID LAKE BUOY  0750   40 38   10/  6/  8 1009.0F   1/ 3
DEVILS ISLAND    0800   45      10/  3/  3 1009.4F
SAXON HARBOR     0700   50     150/  2/  3 1008.8R
$$

LMZ867-665-643>646-290900-
LAKE MICHIGAN

STATION/POSITION TIME  TEMP    WIND        PRES    WAVE
                       AIR SEA DIR/SP/G            HT/PER
                 (UTC) (F)     (DEG/KT/KT) (MB)    (FT/S)
CHAMBERS ISLAND  0700   63     160/  6/ 12 1010.8F
N MID LAKE BUOY  0750   50 46  200/ 10/ 12 1011.0F   3/ 5
NORTHPORT PIER   0700   63     180/  5/  9 1010.8F
SISTER BAY       0720   64     180/ 14/ 17   N/A
ALGOMA LAKESHORE 0717          240/  4/  5   N/A
KEWAUNEE LAKESHO 0700   55     190/  6/  9 1010.6F
SHEBOYGAN LAKESH 0800   60     190/ 12/ 13 1012.3R
PORT WASHINGTON  0700   56     190/  7/  9 1012.9
S MID LAKE BUOY  0750   54 50  170/  8/ 10 1013.3F   1/ 4
KENOSHA   LAKESH 0800   66     210/  7/ 11 1013.2S
$$

TC  - TEMPERATURE IN CELSIUS
VSB - VISIBILITY IN STATUTE MILES
WCI - WIND CHILL INDEX
HX  - HEAT INDEX





USA.gov is the U.S. government's official web portal to all federal, state and local government web resources and services.